Location: Aldenham
(51.6667°N, 0.3500°W)
Time: 16:10:08
(UTC+00:00)

Transit 2A Rocket - Pass Details

Date: 22 February 2026
Orbit: 583 x 900 km, 66.7° (Epoch: 10 March)

Event Time Altitude Azimuth Distance (km) Brightness Sun altitude
Rises 20:55:17 0° 315° (NW) 3,469 9.4 -31.9°
Reaches altitude 10° 20:58:22 10° 329° (NNW) 2,489 8.3 -32.4°
Enters shadow 21:02:00 23° 7° (N) 1,707 6.9 -32.9°
